Home > Weather > Garbsen > Past weeks

Flag for Germany Past Weather in Garbsen, Lower Saxony, Germany — Yesterday and Last 2 Weeks

Now
91 °F

Passing clouds.


Feels Like: 91 °F
Forecast: 65 / 86 °F
Wind: 8 mph from Northwest

Location: Hannover

Current Time: Aug 26, 2016 at 4:03:24 PM

Latest Report: Aug 26, 2016 at 3:20 PM


Visibility: N/A

Pressure: 29.98 "Hg

Humidity: 34%

Dew Point: 59 °F

Location of GarbsenLocation

Past Weather in Garbsen — Graph

°F

Garbsen Temperature Yesterday

Maximum temperature yesterday: 91 °F (at 4:50 PM)
Minimum temperature yesterday: 61 °F (at 6:20 AM)
Average temperature yesterday: 77 °F

High & Low Weather Summary for the Past Weeks

 TemperatureHumidityPressure
High91 °F (Aug 25, 4:50 PM)100% (Aug 12, 1:50 AM)30.33 "Hg (Aug 12, 1:50 AM)
Low45 °F (Aug 18, 5:50 AM)20% (Aug 25, 6:50 PM)29.80 "Hg (Aug 18, 3:20 PM)
Average65 °F72%30.08 "Hg
* Reported Aug 11 2:20 PM — Aug 26 2:50 PM, Garbsen, Weather by CustomWeather, © 2016

Note: Actual official high and low records may vary slightly from our data, if they occured in-between our weather recording intervals... More about our weather records

Advertising

Garbsen Weather History for the Previous 24 Hours

Scroll right to see more
 ConditionsComfort  
Time TempWeatherWind HumidityBarometerVisibility
2:50 PM
Fri, Aug 26
91 °FPassing clouds.6 mph36%29.98 "HgN/A
2:20 PM91 °FPassing clouds.8 mph34%29.98 "HgN/A
1:50 PM91 °FPassing clouds.9 mph34%29.98 "HgN/A
1:20 PM91 °FPassing clouds.8 mph34%29.98 "HgN/A
12:50 PM91 °FPassing clouds.6 mph34%29.98 "HgN/A
12:20 PM90 °FPassing clouds.5 mph33%29.98 "HgN/A
11:50 AM88 °FPassing clouds.6 mph33%29.98 "HgN/A
11:20 AM86 °FPassing clouds.6 mph35%29.98 "HgN/A
10:50 AM84 °FPassing clouds.6 mph37%29.98 "HgN/A
10:20 AM82 °FPassing clouds.8 mph37%29.98 "HgN/A
9:50 AM81 °FSunny.8 mph39%29.98 "Hg10 mi
9:20 AM79 °FSunny.9 mph42%29.98 "Hg10 mi
8:50 AM77 °FSunny.8 mph44%29.98 "Hg10 mi
8:20 AM75 °FSunny.8 mph47%29.98 "Hg10 mi
7:50 AM73 °FSunny.5 mph47%29.98 "Hg10 mi
7:20 AM72 °FClear.7 mph50%29.98 "Hg10 mi
6:50 AM68 °FClear.6 mph56%29.98 "Hg10 mi
6:20 AM68 °FClear.3 mph56%29.98 "Hg10 mi
5:50 AM64 °FClear.6 mph64%29.98 "Hg10 mi
5:20 AM66 °FClear.6 mph60%29.98 "Hg10 mi
4:50 AM66 °FClear.3 mph60%29.98 "Hg10 mi
4:20 AM66 °FPassing clouds.3 mph60%29.98 "HgN/A
3:50 AM68 °FPassing clouds.3 mph56%29.98 "HgN/A
3:20 AM72 °FClear.7 mph50%29.98 "Hg10 mi
2:50 AM73 °FClear.7 mph47%29.98 "Hg10 mi
2:20 AM75 °FClear.9 mph41%29.98 "Hg10 mi
1:50 AM68 °FPassing clouds.3 mph56%29.98 "HgN/A
1:20 AM68 °FClear.6 mph56%29.98 "Hg10 mi
12:50 AM68 °FClear.5 mph56%29.98 "Hg10 mi
12:20 AM66 °FPassing clouds.3 mph60%29.98 "HgN/A
11:50 PM
Thu, Aug 25
68 °FClear.3 mph56%29.98 "Hg10 mi
11:20 PM72 °FClear.5 mph50%29.98 "Hg10 mi
10:50 PM72 °FPassing clouds.5 mph47%29.98 "HgN/A
10:20 PM75 °FClear.5 mph41%29.98 "Hg10 mi
9:50 PM75 °FPassing clouds.3 mph44%29.98 "HgN/A
9:20 PM75 °FPassing clouds.5 mph44%29.98 "HgN/A
8:50 PM84 °FSunny.9 mph29%29.98 "Hg10 mi
8:20 PM86 °FSunny.8 mph27%29.98 "Hg10 mi
7:50 PM88 °FSunny.9 mph25%29.98 "Hg10 mi
7:20 PM90 °FSunny.12 mph22%29.98 "Hg10 mi
6:50 PM91 °FSunny.14 mph20%29.98 "Hg10 mi
6:20 PM91 °FSunny.14 mph23%29.98 "Hg10 mi
5:50 PM91 °FSunny.14 mph23%30.01 "Hg10 mi
5:20 PM91 °FPassing clouds.13 mph23%30.01 "HgN/A
4:50 PM91 °FPassing clouds.15 mph23%30.01 "HgN/A
4:20 PM90 °FPassing clouds.10 mph29%30.04 "HgN/A
Weather by CustomWeather, © 2016

See weather overviewHow to use our weather pages